Flag for U.S.A. Weather past 2 weeks in Missoula, Montana, U.S.A.

Now
43 °F

Sunny.


Feels Like: 39 °F
Forecast: 30 / 46 °F
Wind: 6 mph from Southeast

Location: Missoula International Airport

Current Time: Jan 25, 2015 at 4:29:56 PM

Latest Report: Jan 25, 2015 at 3:53 PM


Visibility: 10 mi

Pressure: 30.26 "Hg

Humidity: 79%

Dew point: 37 °F

Location of MissoulaLocation

Historic Weather in Missoula — Graph

°F

Missoula temperature yesterday

Maximum temperature yesterday: 40 °F (at 2:53 PM)
Minimum temperature yesterday: 32 °F (at 6:53 AM)
Average temperature yesterday: 35 °F

Past Weeks' High & Low Weather Summary

 TemperatureHumidityPressure
High43 °F (Jan 18, 3:53 PM)100% (Jan 11, 10:03 AM)30.64 "Hg (Jan 11, 10:03 AM)
Low8 °F (Jan 15, 2:53 AM)51% (Jan 18, 3:53 PM)29.88 "Hg (Jan 18, 8:03 AM)
Average28 °F85%30.35 "Hg
* Reported Jan 10 2:53 PM — Jan 25 2:53 PM, Missoula, Weather by CustomWeather, © 2014

Note: Actual official high and low records may vary slightly from our data, if they occured in-between our weather recording intervals... More about our weather records

Advertising

Missoula weather history for previous 24 hours

 ConditionsComfort  
Time TempWeatherWind HumidityBarometerVisibility
2:53 PM
Jan 25
38 °FSunny.No wind90%30.26 "Hg10 mi
1:53 PM35 °FSunny.No wind96%30.28 "Hg10 mi
12:53 PM33 °FFog.No wind100%30.30 "Hg6 mi
11:53 AM33 °FFog.No wind100%30.30 "Hg0 mi
10:53 AM33 °FFog.No wind100%30.32 "Hg0 mi
9:53 AM32 °FFog.7 mph100%30.32 "Hg0 mi
8:53 AM33 °FFog.No wind100%30.32 "Hg0 mi
7:53 AM31 °FIce fog.3 mph100%30.31 "Hg0 mi
6:53 AM32 °FFog.No wind100%30.32 "Hg0 mi
5:53 AM32 °FFog.3 mph100%30.32 "Hg1 mi
4:57 AM32 °FFog.3 mph100%30.24 "Hg0 mi
3:53 AM33 °FFog.No wind96%30.33 "Hg3 mi
2:53 AM33 °FFog.No wind100%30.32 "Hg6 mi
1:53 AM33 °FFog.No wind96%30.32 "Hg4 mi
12:53 AM33 °FFog.No wind96%30.34 "Hg1 mi
11:53 PM
Jan 24
34 °FFog.No wind97%30.37 "Hg5 mi
10:53 PM35 °FOvercast.No wind96%30.36 "Hg7 mi
9:53 PM36 °FOvercast.3 mph97%30.37 "Hg10 mi
8:53 PM35 °FOvercast.No wind96%30.36 "Hg10 mi
7:53 PM36 °FOvercast.No wind97%30.37 "Hg10 mi
6:53 PM37 °FLight rain. Overcast.3 mph93%30.37 "Hg10 mi
5:53 PM39 °FMostly cloudy.5 mph89%30.36 "Hg10 mi
4:53 PM40 °FMostly cloudy.3 mph89%30.35 "Hg10 mi
Weather by CustomWeather, © 2014

See weather overviewHow to use our weather pages